Time,TemperatureF,DewpointF,PressureIn,WindDirection,WindDirectionDegrees,WindSpeedMPH,WindSpeedGustMPH,Humidity,HourlyPrecipIn,Conditions,Clouds,dailyrainin,SoftwareType,DateUTC
2013-02-27 00:02:00,36.0,30.0,-100.00,NNW,330,1.0,4.0,78,0.00,,,-99.99,,2013-02-27 05:02:00,
2013-02-27 00:12:00,36.0,30.0,-100.00,North,5,1.0,4.0,77,0.00,,,-99.99,,2013-02-27 05:12:00,
2013-02-27 00:22:00,36.0,30.0,-100.00,NNE,20,1.0,4.0,77,0.00,,,-99.99,,2013-02-27 05:22:00,
2013-02-27 00:32:00,36.0,29.0,-100.00,North,10,0.0,4.0,76,0.00,,,-99.99,,2013-02-27 05:32:00,
2013-02-27 00:42:00,36.0,29.0,-100.00,East,100,1.0,4.0,75,0.00,,,-99.99,,2013-02-27 05:42:00,
2013-02-27 00:52:00,36.0,29.0,-100.00,NNE,25,1.0,5.0,75,0.00,,,-99.99,,2013-02-27 05:52:00,
2013-02-27 01:02:00,36.0,29.0,-100.00,North,10,2.0,4.0,74,0.00,,,-99.99,,2013-02-27 06:02:00,
2013-02-27 01:11:00,36.0,29.0,-100.00,East,80,1.0,2.0,74,0.00,,,-99.99,,2013-02-27 06:11:00,
2013-02-27 01:21:00,36.0,29.0,-100.00,North,355,2.0,6.0,75,0.00,,,-99.99,,2013-02-27 06:21:00,
2013-02-27 01:33:00,36.0,29.0,-100.00,North,0,2.0,6.0,75,0.00,,,-99.99,,2013-02-27 06:33:00,
2013-02-27 01:42:00,36.0,29.0,-100.00,East,90,1.0,5.0,75,0.00,,,-99.99,,2013-02-27 06:42:00,
2013-02-27 01:52:00,36.0,29.0,-100.00,NNE,25,2.0,4.0,75,0.00,,,-99.99,,2013-02-27 06:52:00,
2013-02-27 02:01:00,36.0,29.0,-100.00,NNE,25,2.0,4.0,75,0.00,,,-99.99,,2013-02-27 07:01:00,
2013-02-27 02:12:00,36.0,29.0,-100.00,NNE,25,2.0,4.0,75,0.00,,,-99.99,,2013-02-27 07:12:00,
2013-02-27 02:21:00,36.0,29.0,-100.00,NNE,25,2.0,4.0,75,0.00,,,-99.99,,2013-02-27 07:21:00,
2013-02-27 02:32:00,36.0,30.0,-100.00,NNW,340,1.0,6.0,77,0.00,,,-99.99,,2013-02-27 07:32:00,
2013-02-27 02:42:00,36.0,30.0,-100.00,NW,315,0.0,4.0,77,0.00,,,-99.99,,2013-02-27 07:42:00,
2013-02-27 02:52:00,36.0,30.0,-100.00,North,350,4.0,7.0,77,0.00,,,-99.99,,2013-02-27 07:52:00,
2013-02-27 03:01:00,37.0,30.0,-100.00,East,80,1.0,7.0,76,0.00,,,-99.99,,2013-02-27 08:01:00,
2013-02-27 03:11:00,37.0,30.0,-100.00,NE,40,2.0,6.0,76,0.00,,,-99.99,,2013-02-27 08:11:00,
2013-02-27 03:21:00,37.0,30.0,-100.00,NE,55,5.0,9.0,75,0.00,,,-99.99,,2013-02-27 08:21:00,
2013-02-27 03:32:00,37.0,30.0,-100.00,NE,45,1.0,3.0,76,0.00,,,-99.99,,2013-02-27 08:32:00,
2013-02-27 03:42:00,37.0,30.0,-100.00,NNW,340,1.0,4.0,75,0.00,,,-99.99,,2013-02-27 08:42:00,
2013-02-27 03:52:00,37.0,30.0,-100.00,North,5,1.0,6.0,75,0.00,,,-99.99,,2013-02-27 08:52:00,
2013-02-27 04:02:00,37.0,30.0,-100.00,North,10,1.0,6.0,75,0.00,,,-99.99,,2013-02-27 09:02:00,
2013-02-27 04:12:00,37.0,30.0,-100.00,North,0,1.0,5.0,75,0.00,,,-99.99,,2013-02-27 09:12:00,
2013-02-27 04:22:00,37.0,30.0,-100.00,North,355,2.0,5.0,75,0.00,,,-99.99,,2013-02-27 09:22:00,
2013-02-27 04:32:00,37.0,30.0,-100.00,NE,45,4.0,7.0,76,0.00,,,-99.99,,2013-02-27 09:32:00,
2013-02-27 04:41:00,37.0,30.0,-100.00,North,10,2.0,7.0,77,0.01,,,-99.99,,2013-02-27 09:41:00,
2013-02-27 04:51:00,35.0,32.0,-100.00,NNW,345,3.0,8.0,86,0.11,,,-99.99,,2013-02-27 09:51:00,
2013-02-27 05:01:00,35.0,32.0,-100.00,West,280,2.0,9.0,88,0.23,,,-99.99,,2013-02-27 10:01:00,
2013-02-27 05:12:00,35.0,33.0,-100.00,North,0,2.0,6.0,90,0.10,,,-99.99,,2013-02-27 10:12:00,
2013-02-27 05:22:00,35.0,33.0,-100.00,North,355,2.0,5.0,90,0.03,,,-99.99,,2013-02-27 10:22:00,
2013-02-27 05:32:00,35.0,33.0,-100.00,West,270,3.0,9.0,90,0.10,,,-99.99,,2013-02-27 10:32:00,
2013-02-27 05:42:00,35.0,33.0,-100.00,North,350,1.0,6.0,92,1.42,,,-99.99,,2013-02-27 10:42:00,
2013-02-27 05:52:00,35.0,33.0,-100.00,North,355,1.0,4.0,94,1.29,,,-99.99,,2013-02-27 10:52:00,
2013-02-27 06:02:00,35.0,33.0,-100.00,North,0,2.0,6.0,95,1.60,,,-99.99,,2013-02-27 11:02:00,
2013-02-27 06:12:00,35.0,34.0,-100.00,NW,320,2.0,4.0,97,0.45,,,-99.99,,2013-02-27 11:12:00,
2013-02-27 06:22:00,35.0,34.0,-100.00,NW,315,1.0,4.0,97,0.16,,,-99.99,,2013-02-27 11:22:00,
2013-02-27 06:32:00,35.0,34.0,-100.00,WSW,255,1.0,6.0,98,0.06,,,-99.99,,2013-02-27 11:32:00,
2013-02-27 06:42:00,35.0,34.0,-100.00,WNW,290,2.0,5.0,98,0.17,,,-99.99,,2013-02-27 11:42:00,
2013-02-27 06:52:00,35.0,34.0,-100.00,West,270,1.0,5.0,99,0.08,,,-99.99,,2013-02-27 11:52:00,
2013-02-27 07:02:00,35.0,35.0,-100.00,WNW,285,2.0,4.0,99,0.14,,,-99.99,,2013-02-27 12:02:00,
2013-02-27 07:13:00,35.0,35.0,-100.00,NE,45,1.0,4.0,99,0.21,,,-99.99,,2013-02-27 12:13:00,
2013-02-27 07:22:00,35.0,35.0,-100.00,ENE,70,1.0,5.0,99,0.17,,,-99.99,,2013-02-27 12:22:00,
2013-02-27 07:33:00,36.0,36.0,-100.00,East,90,1.0,7.0,99,0.23,,,-99.99,,2013-02-27 12:33:00,
2013-02-27 07:42:00,36.0,36.0,-100.00,NW,325,1.0,7.0,99,0.14,,,-99.99,,2013-02-27 12:42:00,
2013-02-27 07:52:00,36.0,36.0,-100.00,NNW,335,3.0,8.0,99,0.00,,,-99.99,,2013-02-27 12:52:00,
2013-02-27 08:02:00,36.0,36.0,-100.00,NNW,335,3.0,9.0,99,0.03,,,-99.99,,2013-02-27 13:02:00,
2013-02-27 08:11:00,37.0,36.0,-100.00,NNW,340,5.0,13.0,97,0.01,,,-99.99,,2013-02-27 13:11:00,
2013-02-27 08:22:00,37.0,36.0,-100.00,NW,325,1.0,13.0,96,0.04,,,-99.99,,2013-02-27 13:22:00,
2013-02-27 08:32:00,37.0,36.0,-100.00,North,5,4.0,9.0,95,0.08,,,-99.99,,2013-02-27 13:32:00,
2013-02-27 08:42:00,37.0,36.0,-100.00,ENE,65,4.0,11.0,94,0.17,,,-99.99,,2013-02-27 13:42:00,
2013-02-27 08:52:00,37.0,36.0,-100.00,NNE,15,2.0,9.0,95,0.13,,,-99.99,,2013-02-27 13:52:00,
2013-02-27 09:02:00,38.0,36.0,-100.00,NNW,345,4.0,14.0,94,0.00,,,-99.99,,2013-02-27 14:02:00,
2013-02-27 09:12:00,38.0,36.0,-100.00,NNE,20,4.0,11.0,94,0.00,,,-99.99,,2013-02-27 14:12:00,
2013-02-27 09:32:00,38.0,36.0,-100.00,North,10,4.0,11.0,93,0.00,,,-99.99,,2013-02-27 14:32:00,
2013-02-27 09:42:00,38.0,36.0,-100.00,ENE,65,3.0,11.0,93,0.00,,,-99.99,,2013-02-27 14:42:00,
2013-02-27 09:52:00,38.0,36.0,-100.00,North,0,4.0,14.0,92,0.01,,,-99.99,,2013-02-27 14:52:00,
2013-02-27 10:02:00,38.0,36.0,-100.00,NW,325,2.0,12.0,92,0.00,,,-99.99,,2013-02-27 15:02:00,
2013-02-27 10:12:00,38.0,36.0,-100.00,NNE,30,4.0,12.0,92,0.00,,,-99.99,,2013-02-27 15:12:00,
2013-02-27 10:22:00,38.0,36.0,-100.00,North,350,4.0,9.0,92,0.00,,,-99.99,,2013-02-27 15:22:00,
2013-02-27 10:32:00,38.0,36.0,-100.00,NNE,15,4.0,13.0,93,0.01,,,-99.99,,2013-02-27 15:32:00,
2013-02-27 10:42:00,38.0,36.0,-100.00,North,10,2.0,11.0,92,0.01,,,-99.99,,2013-02-27 15:42:00,
2013-02-27 10:52:00,38.0,36.0,-100.00,NNE,15,4.0,11.0,93,0.06,,,-99.99,,2013-02-27 15:52:00,
2013-02-27 11:02:00,38.0,36.0,-100.00,East,85,2.0,14.0,93,0.08,,,-99.99,,2013-02-27 16:02:00,
2013-02-27 11:12:00,38.0,37.0,-100.00,North,10,4.0,10.0,94,0.03,,,-99.99,,2013-02-27 16:12:00,
2013-02-27 11:22:00,38.0,36.0,-100.00,North,0,7.0,15.0,93,0.01,,,-99.99,,2013-02-27 16:22:00,
2013-02-27 11:32:00,38.0,37.0,-100.00,WSW,240,1.0,9.0,93,0.01,,,-99.99,,2013-02-27 16:32:00,
2013-02-27 11:52:00,38.0,36.0,-100.00,East,80,5.0,12.0,93,0.01,,,-99.99,,2013-02-27 16:52:00,
2013-02-27 12:02:00,38.0,37.0,-100.00,North,355,4.0,12.0,93,0.03,,,-99.99,,2013-02-27 17:02:00,
2013-02-27 12:11:00,38.0,37.0,-100.00,North,0,1.0,11.0,93,0.01,,,-99.99,,2013-02-27 17:11:00,
2013-02-27 12:21:00,39.0,37.0,-100.00,NE,55,3.0,7.0,93,0.04,,,-99.99,,2013-02-27 17:21:00,
2013-02-27 12:32:00,39.0,37.0,-100.00,ENE,70,1.0,9.0,93,0.01,,,-99.99,,2013-02-27 17:32:00,
2013-02-27 12:42:00,39.0,37.0,-100.00,NNW,340,3.0,12.0,93,0.01,,,-99.99,,2013-02-27 17:42:00,
2013-02-27 12:52:00,39.0,37.0,-100.00,NE,55,3.0,9.0,93,0.03,,,-99.99,,2013-02-27 17:52:00,
2013-02-27 13:02:00,39.0,37.0,-100.00,North,0,3.0,7.0,93,0.01,,,-99.99,,2013-02-27 18:02:00,
2013-02-27 13:11:00,39.0,37.0,-100.00,North,-999,-999.0,-999.0,93,0.04,,,-99.99,,2013-02-27 18:11:00,
2013-02-27 13:22:00,39.0,37.0,-100.00,North,10,2.0,7.0,93,0.01,,,-99.99,,2013-02-27 18:22:00,
2013-02-27 13:32:00,39.0,37.0,-100.00,ENE,60,2.0,9.0,93,0.01,,,-99.99,,2013-02-27 18:32:00,
2013-02-27 13:42:00,39.0,37.0,-100.00,NE,55,5.0,9.0,92,0.01,,,-99.99,,2013-02-27 18:42:00,
2013-02-27 13:51:00,39.0,37.0,-100.00,NNE,15,7.0,13.0,92,0.03,,,-99.99,,2013-02-27 18:51:00,
2013-02-27 14:01:00,38.0,36.0,-100.00,NE,40,4.0,10.0,92,0.03,,,-99.99,,2013-02-27 19:01:00,
2013-02-27 14:12:00,38.0,36.0,-100.00,ENE,60,5.0,9.0,92,0.01,,,-99.99,,2013-02-27 19:12:00,
2013-02-27 14:21:00,38.0,36.0,-100.00,ENE,65,7.0,11.0,92,0.08,,,-99.99,,2013-02-27 19:21:00,
2013-02-27 14:32:00,37.0,35.0,-100.00,North,-999,-999.0,-999.0,93,0.28,,,-99.99,,2013-02-27 19:32:00,
2013-02-27 14:42:00,37.0,36.0,-100.00,North,5,3.0,10.0,93,0.07,,,-99.99,,2013-02-27 19:42:00,
2013-02-27 14:52:00,37.0,36.0,-100.00,North,350,4.0,16.0,93,0.17,,,-99.99,,2013-02-27 19:52:00,
2013-02-27 15:01:00,37.0,35.0,-100.00,East,80,2.0,11.0,93,0.10,,,-99.99,,2013-02-27 20:01:00,
2013-02-27 15:12:00,37.0,35.0,-100.00,NE,50,2.0,7.0,94,0.08,,,-99.99,,2013-02-27 20:12:00,
2013-02-27 15:22:00,37.0,35.0,-100.00,NE,55,5.0,11.0,94,0.06,,,-99.99,,2013-02-27 20:22:00,
2013-02-27 15:32:00,37.0,35.0,-100.00,North,0,6.0,11.0,94,0.06,,,-99.99,,2013-02-27 20:32:00,
2013-02-27 15:42:00,37.0,35.0,-100.00,ENE,70,2.0,11.0,94,0.07,,,-99.99,,2013-02-27 20:42:00,
2013-02-27 15:52:00,36.0,35.0,-100.00,ENE,65,3.0,8.0,94,0.08,,,-99.99,,2013-02-27 20:52:00,
2013-02-27 16:02:00,36.0,35.0,-100.00,West,275,2.0,12.0,94,0.08,,,-99.99,,2013-02-27 21:02:00,
2013-02-27 16:11:00,36.0,35.0,-100.00,NNW,330,3.0,11.0,94,0.04,,,-99.99,,2013-02-27 21:11:00,
2013-02-27 16:22:00,36.0,35.0,-100.00,NNE,25,2.0,11.0,94,0.10,,,-99.99,,2013-02-27 21:22:00,
2013-02-27 16:32:00,36.0,35.0,-100.00,North,10,4.0,9.0,94,0.03,,,-99.99,,2013-02-27 21:32:00,
2013-02-27 16:42:00,36.0,35.0,-100.00,WSW,250,2.0,9.0,94,0.08,,,-99.99,,2013-02-27 21:42:00,
2013-02-27 16:52:00,36.0,35.0,-100.00,ENE,75,3.0,7.0,94,0.06,,,-99.99,,2013-02-27 21:52:00,
2013-02-27 17:01:00,36.0,35.0,-100.00,North,0,6.0,17.0,94,0.14,,,-99.99,,2013-02-27 22:01:00,
2013-02-27 17:11:00,36.0,35.0,-100.00,NNE,20,5.0,12.0,94,0.17,,,-99.99,,2013-02-27 22:11:00,
2013-02-27 17:21:00,36.0,34.0,-100.00,West,280,3.0,10.0,94,0.48,,,-99.99,,2013-02-27 22:21:00,
2013-02-27 17:32:00,36.0,35.0,-100.00,NE,55,4.0,8.0,95,0.31,,,-99.99,,2013-02-27 22:32:00,
2013-02-27 17:42:00,36.0,35.0,-100.00,North,10,2.0,11.0,96,0.59,,,-99.99,,2013-02-27 22:42:00,
2013-02-27 17:51:00,35.0,34.0,-100.00,NNW,335,2.0,10.0,97,0.30,,,-99.99,,2013-02-27 22:51:00,
2013-02-27 18:01:00,35.0,35.0,-100.00,West,280,3.0,7.0,98,0.33,,,-99.99,,2013-02-27 23:01:00,
2013-02-27 18:11:00,35.0,35.0,-100.00,NNW,335,5.0,8.0,98,0.07,,,-99.99,,2013-02-27 23:11:00,
2013-02-27 18:21:00,35.0,35.0,-100.00,North,5,5.0,9.0,98,0.07,,,-99.99,,2013-02-27 23:21:00,
2013-02-27 18:32:00,35.0,35.0,-100.00,North,0,2.0,9.0,98,0.16,,,-99.99,,2013-02-27 23:32:00,
2013-02-27 18:42:00,35.0,35.0,-100.00,NNW,330,2.0,11.0,98,0.03,,,-99.99,,2013-02-27 23:42:00,
2013-02-27 18:52:00,35.0,35.0,-100.00,ENE,75,2.0,11.0,98,0.03,,,-99.99,,2013-02-27 23:52:00,
2013-02-27 19:02:00,35.0,34.0,-100.00,NNW,345,4.0,12.0,97,0.07,,,-99.99,,2013-02-28 00:02:00,
2013-02-27 19:12:00,35.0,34.0,-100.00,ENE,60,6.0,14.0,97,0.03,,,-99.99,,2013-02-28 00:12:00,
2013-02-27 19:21:00,35.0,34.0,-100.00,North,0,1.0,6.0,96,0.13,,,-99.99,,2013-02-28 00:21:00,
2013-02-27 19:32:00,35.0,34.0,-100.00,NE,50,5.0,9.0,96,0.14,,,-99.99,,2013-02-28 00:32:00,
2013-02-27 19:42:00,35.0,34.0,-100.00,NNE,15,3.0,9.0,96,0.00,,,-99.99,,2013-02-28 00:42:00,
2013-02-27 19:52:00,35.0,34.0,-100.00,North,355,3.0,7.0,96,0.08,,,-99.99,,2013-02-28 00:52:00,
2013-02-27 20:01:00,35.0,34.0,-100.00,North,10,2.0,10.0,95,0.04,,,-99.99,,2013-02-28 01:01:00,
2013-02-27 20:11:00,35.0,33.0,-100.00,West,280,3.0,9.0,95,0.10,,,-99.99,,2013-02-28 01:11:00,
2013-02-27 20:22:00,34.0,33.0,-100.00,West,280,2.0,12.0,95,0.03,,,-99.99,,2013-02-28 01:22:00,
2013-02-27 20:32:00,35.0,33.0,-100.00,NNW,335,2.0,9.0,95,0.00,,,-99.99,,2013-02-28 01:32:00,
2013-02-27 20:42:00,34.0,33.0,-100.00,SW,220,3.0,9.0,96,0.00,,,-99.99,,2013-02-28 01:42:00,
2013-02-27 20:52:00,34.0,33.0,-100.00,WSW,250,3.0,6.0,96,0.01,,,-99.99,,2013-02-28 01:52:00,
2013-02-27 21:01:00,34.0,33.0,-100.00,WNW,290,1.0,11.0,96,0.01,,,-99.99,,2013-02-28 02:01:00,
2013-02-27 21:11:00,34.0,33.0,-100.00,West,260,1.0,4.0,96,0.06,,,-99.99,,2013-02-28 02:11:00,
2013-02-27 21:22:00,34.0,33.0,-100.00,WNW,290,2.0,4.0,96,0.03,,,-99.99,,2013-02-28 02:22:00,
2013-02-27 21:32:00,34.0,33.0,-100.00,WNW,300,2.0,6.0,96,0.04,,,-99.99,,2013-02-28 02:32:00,
2013-02-27 21:41:00,34.0,33.0,-100.00,WNW,300,2.0,6.0,96,0.04,,,-99.99,,2013-02-28 02:41:00,
2013-02-27 21:52:00,34.0,33.0,-100.00,WNW,300,2.0,6.0,96,0.04,,,-99.99,,2013-02-28 02:52:00,
2013-02-27 22:02:00,34.0,33.0,-100.00,SW,220,2.0,6.0,97,0.01,,,-99.99,,2013-02-28 03:02:00,
2013-02-27 22:11:00,34.0,33.0,-100.00,SW,225,1.0,4.0,97,0.01,,,-99.99,,2013-02-28 03:11:00,
2013-02-27 22:21:00,34.0,33.0,-100.00,WNW,295,2.0,4.0,98,0.00,,,-99.99,,2013-02-28 03:21:00,
2013-02-27 22:32:00,34.0,33.0,-100.00,WNW,300,2.0,6.0,98,0.03,,,-99.99,,2013-02-28 03:32:00,
2013-02-27 22:42:00,34.0,33.0,-100.00,NNW,340,2.0,6.0,98,0.10,,,-99.99,,2013-02-28 03:42:00,
2013-02-27 22:52:00,34.0,34.0,-100.00,North,0,1.0,7.0,99,0.11,,,-99.99,,2013-02-28 03:52:00,
2013-02-27 23:02:00,34.0,34.0,-100.00,WNW,285,2.0,7.0,99,0.01,,,-99.99,,2013-02-28 04:02:00,
2013-02-27 23:11:00,34.0,33.0,-100.00,West,275,1.0,6.0,99,0.00,,,-99.99,,2013-02-28 04:11:00,
2013-02-27 23:21:00,34.0,33.0,-100.00,West,260,2.0,5.0,99,0.01,,,-99.99,,2013-02-28 04:21:00,
2013-02-27 23:32:00,33.0,33.0,-100.00,West,260,2.0,4.0,99,0.00,,,-99.99,,2013-02-28 04:32:00,
2013-02-27 23:42:00,33.0,33.0,-100.00,WNW,300,1.0,6.0,99,0.00,,,-99.99,,2013-02-28 04:42:00,
2013-02-27 23:52:00,33.0,33.0,-100.00,WNW,290,2.0,6.0,99,0.00,,,-99.99,,2013-02-28 04:52:00,